Regional Weather Roundup
Issued by NWS

Home | Current Version | Previous Version | Text Only | Print | Product List | Glossary On
Versions: 1 2 3 4 5 6 7 8 9 10 11 12 13 14 15 16 17 18 19 20 21 22 23 24 25 26 27 28 29 30 31 32 33 34 35 36 37 38 39 40 41 42 43 44 45 46 47 48 49 50
000
ASUS43 KLSX 290407
RWRMO

WEATHER SUMMARY FOR MISSOURI
NATIONAL WEATHER SERVICE SPRINGFIELD MO
1000 PM CST FRI NOV 28 2014

NOTE: "FAIR" INDICATES FEW OR NO CLOUDS BELOW 12,000 FEET WITH NO
       SIGNIFICANT WEATHER AND/OR OBSTRUCTIONS TO VISIBILITY.
       CURRENT SKY AND/OR WEATHER CONDITIONS ARE NOT AVAILABLE FOR
       CHILLICOTHE AND FARMINGTON.

MOZ001>031-035>038-043-044-053-054-290500-
...NORTHERN AND WESTERN MISSOURI...

CITY           SKY/WX    TMP DP  RH WIND       PRES   REMARKS
KANSAS CTY INT CLOUDY    52  37  56 S17       29.73F
KANSAS C DTWN  MOCLDY    54  37  52 SW13      29.75F
LEE`S SUMMIT   CLOUDY    53  38  56 SW13      29.76F
ST JOSEPH      MOCLDY    51  36  56 SW17      29.70F
CHILLICOTHE      N/A     48  36  63 S9        29.74F
KIRKSVILLE     CLOUDY    45  35  68 S9        29.76F

$$
MOZ066>068-077>081-088>096-101>105-290500-
...SOUTHWEST MISSOURI...

CITY           SKY/WX    TMP DP  RH WIND       PRES   REMARKS
SPRINGFIELD    MOCLDY    48  35  60 S14       29.88F
JOPLIN         CLOUDY    56  43  61 MISG      29.86F

$$
MOZ032>034-039>042-045>050-055>058-069>072-290500-
...CENTRAL MISSOURI...

CITY           SKY/WX    TMP DP  RH WIND       PRES   REMARKS
COLUMBIA       MOCLDY    48  35  60 S13       29.83F
JEFFERSON CITY MOCLDY    50  35  56 SE6       29.85S
ROLLA          MOCLDY    45  34  65 S17       29.85F
SEDALIA        MOCLDY    53  37  54 SW16G24   29.80F
WHITEMAN AFB   CLOUDY    49  37  62 SW16      29.78F
WARRENSBURG    CLOUDY    50  37  62 S10G16    29.78F
OSAGE BEACH    PTCLDY    48  34  57 S9        29.85F

$$
MOZ051-052-059>065-290500-
...EAST CENTRAL MISSOURI...

CITY           SKY/WX    TMP DP  RH WIND       PRES   REMARKS
ST LOUIS INTL  MOCLDY    45  34  65 S9        29.91S
SPIRIT OF STL  MOCLDY    44  33  65 SE3       29.89S
ST CHARLES     MOCLDY    40  34  79 S6        29.90S

$$
MOZ072>076-082>087-097>100-106>115-290500-
...SOUTH CENTRAL AND SOUTHEAST MISSOURI...

CITY           SKY/WX    TMP DP  RH WIND       PRES   REMARKS
CAPE GIRARDEAU CLEAR     42  31  64 S10       30.02S
FARMINGTON     PTCLDY    45  34  65 SW16      29.95R
POPLAR BLUFF   CLEAR     43  32  65 S10       30.01F
WEST PLAINS    PTCLDY    44  33  65 S7        29.96F

$$



USA.gov is the U.S. government's official web portal to all federal, state and local government web resources and services.